Weather History for Burlington, WI

Change the Weather History Date:

Saturday, October 6, 2012

  Actual Average (KENW) Record (KENW)
Temperature  
Mean Temperature 37 °F -  
Max Temperature 44 °F 63 °F 88 °F (1963)
Min Temperature 30 °F 43 °F 27 °F (1952)
Degree Days  
Heating Degree Days 28    
Moisture  
Dew Point 28 °F    
Average Humidity 66    
Maximum Humidity 87    
Minimum Humidity 49    
Precipitation  
Precipitation 0.00 in - - ()
Sea Level Pressure  
Sea Level Pressure 30.11 in    
Wind  
Wind Speed 7 mph (WNW)    
Max Wind Speed 16 mph    
Max Gust Speed 22 mph    
Visibility 10 miles    
Events      
Averages and records for this station are not official NWS values.
T = Trace of Precipitation, MM = Missing Value Source: NWS Daily Summary

Daily Weather History Graph

Daily Weather History Graph

Search for Another Location

Airport:

Trip Planner

Search our weather history database for the weather conditions in past years. The results will help you decide how hot, cold, wet, or windy it might be!

Date:

Astronomy

Oct. 06, 2012 Rise Set
Actual Time 6:56 AM CDT 6:25 PM CDT
Civil Twilight 6:28 AM CDT 6:53 PM CDT
Nautical Twilight 5:55 AM CDT 7:25 PM CDT
Astronomical Twilight 5:22 AM CDT 7:58 PM CDT
Moon 10:34 PM CDT (10/6) 12:57 PM CDT (10/6)
Length of Visible Light 12h 24m
Length of Day
11h 28m
Waning Gibbous, 65% of the Moon is Illuminated
Oct 6
Waning Gibbous
Oct 8
Last Quarter
Oct 15
New
Oct 21
First Quarter
Oct 29
Full

Hourly Weather History & Observations

Time (CDT) Temp. Windchill Dew Point Humidity Pressure Visibility Wind Dir Wind Speed Gust Speed Precip Events Conditions
12:15 AM 35.6 °F 30.7 °F 24.8 °F 65% 30.03 in 10.0 mi West 5.8 mph - N/A   Clear
12:35 AM 35.6 °F 29.9 °F 24.8 °F 65% 30.03 in 10.0 mi West 6.9 mph - N/A   Clear
12:55 AM 33.8 °F 28.6 °F 24.8 °F 70% 30.03 in 10.0 mi West 5.8 mph - N/A   Clear
1:15 AM 33.8 °F 29.6 °F 24.8 °F 70% 30.04 in 10.0 mi West 4.6 mph - N/A   Clear
1:35 AM 33.8 °F 30.8 °F 24.8 °F 70% 30.04 in 10.0 mi West 3.5 mph - N/A   Clear
1:55 AM 32.0 °F 28.7 °F 24.8 °F 75% 30.04 in 10.0 mi West 3.5 mph - N/A   Clear
2:15 AM 32.0 °F - 24.8 °F 75% 30.04 in 10.0 mi Calm Calm - N/A   Clear
2:35 AM 30.2 °F - 24.8 °F 80% 30.04 in 10.0 mi Calm Calm - N/A   Scattered Clouds
2:55 AM 30.2 °F - 26.6 °F 86% 30.05 in 10.0 mi Calm Calm - N/A   Mostly Cloudy
3:15 AM 33.8 °F 28.6 °F 26.6 °F 75% 30.05 in 10.0 mi West 5.8 mph - N/A   Overcast
3:55 AM 35.6 °F 30.7 °F 28.4 °F 75% 30.04 in 10.0 mi West 5.8 mph - N/A   Overcast
4:35 AM 33.8 °F 29.6 °F 26.6 °F 75% 30.04 in 10.0 mi WSW 4.6 mph - N/A   Scattered Clouds
4:55 AM 32.0 °F 26.4 °F 26.6 °F 80% 30.05 in 10.0 mi SW 5.8 mph - N/A   Clear
5:15 AM 32.0 °F 27.5 °F 26.6 °F 80% 30.05 in 10.0 mi WSW 4.6 mph - N/A   Scattered Clouds
5:35 AM 32.0 °F 27.5 °F 28.4 °F 87% 30.06 in 10.0 mi WSW 4.6 mph - N/A   Mostly Cloudy
5:55 AM 32.0 °F - 28.4 °F 87% 30.06 in 10.0 mi Calm Calm - N/A   Mostly Cloudy
6:15 AM 32.0 °F 27.5 °F 26.6 °F 80% 30.07 in 10.0 mi WSW 4.6 mph - N/A   Scattered Clouds
6:55 AM 32.0 °F 26.4 °F 26.6 °F 80% 30.08 in 10.0 mi WSW 5.8 mph - N/A   Scattered Clouds
7:15 AM 33.8 °F 29.6 °F 28.4 °F 81% 30.08 in 10.0 mi West 4.6 mph - N/A   Scattered Clouds
7:35 AM 35.6 °F 29.2 °F 28.4 °F 75% 30.08 in 10.0 mi West 8.1 mph - N/A   Mostly Cloudy
7:55 AM 35.6 °F 28.0 °F 28.4 °F 75% 30.09 in 10.0 mi West 10.4 mph - N/A   Mostly Cloudy
8:15 AM 37.4 °F 31.4 °F 28.4 °F 70% 30.09 in 10.0 mi West 8.1 mph 16.1 mph N/A   Mostly Cloudy
8:35 AM 37.4 °F 31.4 °F 28.4 °F 70% 30.10 in 10.0 mi West 8.1 mph 17.3 mph N/A   Overcast
8:55 AM 37.4 °F 31.4 °F 28.4 °F 70% 30.10 in 10.0 mi WNW 8.1 mph - N/A   Overcast
9:15 AM 39.2 °F 31.2 °F 28.4 °F 65% 30.11 in 10.0 mi WNW 13.8 mph - N/A   Overcast
9:35 AM 39.2 °F 31.6 °F 28.4 °F 65% 30.11 in 10.0 mi WNW 12.7 mph - N/A   Overcast
9:55 AM 41.0 °F 33.1 °F 28.4 °F 61% 30.12 in 10.0 mi WNW 15.0 mph 21.9 mph N/A   Overcast
10:35 AM 41.0 °F 33.9 °F 28.4 °F 61% 30.12 in 10.0 mi NW 12.7 mph 20.7 mph N/A   Overcast
10:55 AM 41.0 °F 33.5 °F 28.4 °F 61% 30.12 in 10.0 mi NW 13.8 mph 20.7 mph N/A   Overcast
11:15 AM 41.0 °F 33.1 °F 28.4 °F 61% 30.13 in 10.0 mi WNW 15.0 mph 19.6 mph N/A   Overcast
11:35 AM 42.8 °F 35.1 °F 28.4 °F 57% 30.13 in 10.0 mi NW 16.1 mph 20.7 mph N/A   Overcast
11:55 AM 42.8 °F 35.8 °F 28.4 °F 57% 30.13 in 10.0 mi WNW 13.8 mph 18.4 mph N/A   Overcast
12:15 PM 42.8 °F 35.1 °F 28.4 °F 57% 30.13 in 10.0 mi WNW 16.1 mph 20.7 mph N/A   Overcast
12:35 PM 42.8 °F 35.1 °F 28.4 °F 57% 30.13 in 10.0 mi WNW 16.1 mph 20.7 mph N/A   Overcast
12:55 PM 44.6 °F 38.4 °F 26.6 °F 49% 30.13 in 10.0 mi WNW 12.7 mph 19.6 mph N/A   Overcast
1:15 PM 42.8 °F 35.8 °F 26.6 °F 53% 30.13 in 10.0 mi WNW 13.8 mph 18.4 mph N/A   Overcast
1:35 PM 42.8 °F 36.6 °F 26.6 °F 53% 30.13 in 10.0 mi NW 11.5 mph 17.3 mph N/A   Overcast
1:55 PM 44.6 °F 37.8 °F 26.6 °F 49% 30.12 in 10.0 mi NW 15.0 mph 18.4 mph N/A   Overcast
2:15 PM 42.8 °F 35.8 °F 26.6 °F 53% 30.12 in 10.0 mi NNW 13.8 mph 18.4 mph N/A   Overcast
2:35 PM 44.6 °F 39.2 °F 26.6 °F 49% 30.12 in 10.0 mi WNW 10.4 mph - N/A   Overcast
2:55 PM 42.8 °F 35.8 °F 28.4 °F 57% 30.12 in 10.0 mi WNW 13.8 mph 17.3 mph N/A   Overcast
3:15 PM 42.8 °F 38.0 °F 28.4 °F 57% 30.12 in 10.0 mi WNW 8.1 mph - N/A   Overcast
3:35 PM 42.8 °F 38.0 °F 26.6 °F 53% 30.13 in 10.0 mi WNW 8.1 mph - N/A   Overcast
3:55 PM 42.8 °F 37.5 °F 28.4 °F 57% 30.13 in 10.0 mi WNW 9.2 mph - N/A   Overcast
4:15 PM 42.8 °F 37.5 °F 28.4 °F 57% 30.13 in 10.0 mi NW 9.2 mph - N/A   Overcast
4:35 PM 42.8 °F 38.0 °F 28.4 °F 57% 30.13 in 10.0 mi NW 8.1 mph - N/A   Overcast
4:55 PM 42.8 °F 37.0 °F 28.4 °F 57% 30.14 in 10.0 mi NW 10.4 mph - N/A   Overcast
5:15 PM 42.8 °F 38.0 °F 26.6 °F 53% 30.14 in 10.0 mi NW 8.1 mph - N/A   Overcast
5:35 PM 42.8 °F 38.6 °F 28.4 °F 57% 30.14 in 10.0 mi WNW 6.9 mph - N/A   Overcast
5:55 PM 41.0 °F 35.8 °F 28.4 °F 61% 30.15 in 10.0 mi WNW 8.1 mph - N/A   Overcast
6:15 PM 41.0 °F 35.8 °F 28.4 °F 61% 30.15 in 10.0 mi WNW 8.1 mph - N/A   Overcast
6:35 PM 41.0 °F 35.8 °F 28.4 °F 61% 30.15 in 10.0 mi NW 8.1 mph - N/A   Overcast
6:55 PM 41.0 °F 36.4 °F 28.4 °F 61% 30.16 in 10.0 mi WNW 6.9 mph - N/A   Overcast
7:15 PM 41.0 °F 36.4 °F 28.4 °F 61% 30.16 in 10.0 mi WNW 6.9 mph - N/A   Overcast
7:35 PM 41.0 °F 35.2 °F 28.4 °F 61% 30.16 in 10.0 mi WNW 9.2 mph - N/A   Overcast
7:55 PM 39.2 °F 34.2 °F 28.4 °F 65% 30.17 in 10.0 mi WNW 6.9 mph - N/A   Overcast
8:15 PM 39.2 °F 35.0 °F 28.4 °F 65% 30.17 in 10.0 mi WNW 5.8 mph - N/A   Overcast
8:35 PM 39.2 °F 33.0 °F 28.4 °F 65% 30.17 in 10.0 mi NW 9.2 mph - N/A   Overcast
8:55 PM 39.2 °F 34.2 °F 28.4 °F 65% 30.17 in 10.0 mi WNW 6.9 mph - N/A   Overcast
9:15 PM 39.2 °F 34.2 °F 28.4 °F 65% 30.17 in 10.0 mi WNW 6.9 mph - N/A   Overcast
9:35 PM 39.2 °F 35.0 °F 28.4 °F 65% 30.17 in 10.0 mi WNW 5.8 mph - N/A   Overcast
9:55 PM 39.2 °F 34.2 °F 28.4 °F 65% 30.17 in 10.0 mi WNW 6.9 mph - N/A   Overcast
10:15 PM 37.4 °F 32.8 °F 28.4 °F 70% 30.17 in 10.0 mi WNW 5.8 mph - N/A   Overcast
10:35 PM 37.4 °F 33.8 °F 28.4 °F 70% 30.17 in 10.0 mi WNW 4.6 mph - N/A   Overcast
10:55 PM 37.4 °F 32.8 °F 28.4 °F 70% 30.17 in 10.0 mi WNW 5.8 mph - N/A   Overcast
11:15 PM 37.4 °F 32.8 °F 28.4 °F 70% 30.17 in 10.0 mi WNW 5.8 mph - N/A   Overcast
11:55 PM 37.4 °F 32.8 °F 28.4 °F 70% 30.16 in 10.0 mi WNW 5.8 mph - N/A   Overcast